Weather in Bolchary

Russia / Khanty-Mansi Autonomous Okrug — Yugra     59°48′51″N   68°48′42″E
temp.,
°C
wind,
m/s
gust,
m/s
humid.,
%
clouds,
%
prec.,
mm/h
press.,
hPa
HPBL,
m
19 september, sun
sun1923:00+3wsw5988100 0.1 997918
02:00+1w51297100 0.4 996664
05:00+1w61398100 2.6 996639
08:00+1wnw61197100 1.0 996609
11:00+2wnw51096100 1.4 997740
14:00+3wnw61196100 0.5 998824
17:00+2wnw61397100 1.8 1000918
20:00+2nw71297100 0.9 1001973
20 september, mon
mon2023:00+2nnw71297100 1.6 10031066
02:00+2nnw61297100 0.2 1006874
05:00+1nnw51098100 0.5 1009628
08:00+2nnw61297100 0.7 1011804
11:00+3nnw61297100 1.1 1014986
14:00+3nnw51097100 0.2 1017806
17:00+3nnw5997100 0.3 1019743
20:00+2nnw5109799 0.1 1021714
21 september, tue
tue2123:00+1nnw599494 0.3 1022689
02:000nw489084 0.1 1023584
05:00+1nw4892100 0.1 1023428
08:00+1nw4895100 0.1 1023466
11:00+5nw577690 0.1 1022961
14:00+5wnw5777100 0.2 1022911
17:00+5wnw4880100 0.3 1021788
20:00+3w4997100 0.2 1021637
22 september, wed
wed2223:00+3wnw3798100 0.8 1020626
02:00+3wnw3797100 0.4 1019567
05:00+3nw3698100 0.5 1020581
08:00+3nw3798100 0.1 1020638
11:00+4n479494 0.3 1021639
14:00+5nnw467980 0.3 1022922
17:00+4nne478581 0.4 1023692
20:00+2nw2691100 0.0 1024308
23 september, thu
thu2323:00+2nnw3790100 0.1 1024240
02:00+1nnw3792100 0.0 1024225
05:00−1n369733 0.0 1026148
08:00+1nne4690100 0.0 1027476
11:00+2nne3482100 0.0 1029647
14:00+3n3376100 0.0 1030821
17:00+3nnw2376100 0.0 1031545
20:00+2w118087 0.0 103224